Location: Albany
(35.0000°S, 118.0000°E)
Time: 10:26:16
(UTC-04:00)

Cosmos 1626 - Visible Passes

Search period start: 28 April 2015 00:00
Search period end: 08 May 2015 00:00
Orbit: 508 x 510 km, 82.5° (Epoch: 27 April)

Date Brightness Start Highest point End Pass type
(mag) Time Alt. Az. Time Alt. Az. Time Alt. Az.
28 Apr 2.8 06:49:47 10° NNW 06:53:33 59° W 06:57:22 10° S visible
28 Apr 5.4 16:49:06 10° SE 16:50:51 13° ESE 16:52:48 10° ENE visible
29 Apr 2.3 06:32:45 10° N 06:36:34 80° W 06:40:26 10° S visible
29 Apr 2.6 18:06:01 10° SSW 18:09:41 42° W 18:13:18 10° NNW visible
30 Apr 2.1 06:15:47 10° N 06:19:35 76° E 06:23:26 10° S visible
30 Apr 2.2 17:48:55 10° SSW 17:52:44 57° W 17:56:27 10° N visible
01 May 2.3 05:58:53 10° N 06:02:36 55° E 06:06:23 10° SSE visible
01 May 2.1 17:31:52 10° S 17:35:44 78° W 17:39:32 10° N visible
02 May 5.7 07:20:59 10° W 07:21:32 10° WSW 07:21:50 10° WSW visible
02 May 2.3 17:14:51 10° S 17:18:43 78° E 17:22:32 10° N visible
03 May 5.4 07:02:23 10° WNW 07:04:24 13° WSW 07:06:14 10° SW visible
03 May 2.8 16:57:53 10° S 17:01:42 57° E 17:05:27 10° NNE visible
04 May 5.2 06:44:37 10° WNW 06:47:16 17° WSW 06:49:49 10° SSW visible
04 May 3.4 16:42:55 26° SSE 16:44:38 42° E 16:48:17 10° NNE visible
05 May 4.8 06:27:03 10° NW 06:30:08 22° WSW 06:33:10 10° SSW visible
05 May 4.0 16:27:55 31° E 16:27:55 31° E 16:31:01 10° NE visible
05 May 4.0 18:02:54 13° W 18:02:54 13° W 18:04:28 10° WNW visible
06 May 4.4 06:09:39 10° NW 06:13:02 29° WSW 06:16:23 10° SSW visible
06 May 5.0 16:12:43 15° ENE 16:12:43 15° ENE 16:13:37 10° NE visible
06 May 4.3 17:47:42 12° WNW 17:47:42 12° WNW 17:48:16 10° NW visible
07 May 3.8 05:52:20 10° NNW 05:55:55 38° W 05:59:32 10° S visible
